| time (UTC) | temp C | wind direction | speed KPH | gust KPH | rain 1hr cm | rain 24hr cm | rain mn cm | humidity % | barometer mb |
| 20260505100022 | 14 | 190 | 6.4 | 25.7 | 0.00 | 0.00 | 0.00 | 56 | 1006.8 |
| 20260505094516 | 15 | 190 | 8.0 | 22.5 | 0.00 | 0.00 | 0.00 | 55 | 1006.1 |
| 20260505093011 | 15 | 190 | 4.8 | 17.7 | 0.00 | 0.00 | 0.00 | 54 | 1005.5 |
| 20260505091506 | 16 | 190 | 4.8 | 14.5 | 0.00 | 0.00 | 0.00 | 52 | 1004.7 |
| 20260505090001 | 17 | 190 | 9.7 | 20.9 | 0.00 | 0.00 | 0.00 | 46 | 1004.3 |
| 20260505084557 | 18 | 190 | 9.7 | 19.3 | 0.00 | 0.00 | 0.00 | 36 | 1003.9 |
| 20260505083102 | 20 | 190 | 14.5 | 24.1 | 0.00 | 0.00 | 0.00 | 24 | 1003.7 |
| 20260505081553 | 21 | 190 | 14.5 | 32.2 | 0.00 | 0.00 | 0.00 | 22 | 1003.2 |
| 20260505080044 | 22 | 190 | 19.3 | 29.0 | 0.00 | 0.00 | 0.00 | 21 | 1003.1 |
| 20260505074544 | 22 | 190 | 11.3 | 19.3 | 0.00 | 0.00 | 0.00 | 21 | 1002.8 |
| 20260505073038 | 22 | 190 | 9.7 | 19.3 | 0.00 | 0.00 | 0.00 | 21 | 1002.7 |
| 20260505071539 | 22 | 190 | 9.7 | 17.7 | 0.00 | 0.00 | 0.00 | 21 | 1002.9 |
| 20260505070039 | 22 | 190 | 9.7 | 17.7 | 0.00 | 0.00 | 0.00 | 22 | 1003.2 |
| 20260505064550 | 22 | 190 | 8.0 | 16.1 | 0.00 | 0.00 | 0.00 | 23 | 1003.3 |
| 20260505063027 | 23 | 190 | 8.0 | 16.1 | 0.00 | 0.00 | 0.00 | 21 | 1003.4 |
| 20260505061536 | 23 | 190 | 11.3 | 22.5 | 0.00 | 0.00 | 0.00 | 20 | 1003.2 |
| 20260505060029 | 23 | 190 | 12.9 | 19.3 | 0.00 | 0.00 | 0.00 | 20 | 1003.1 |
| 20260505054524 | 23 | 190 | 9.7 | 22.5 | 0.00 | 0.00 | 0.00 | 20 | 1003.2 |
| 20260505053021 | 23 | 190 | 9.7 | 16.1 | 0.00 | 0.00 | 0.00 | 19 | 1003.3 |
| 20260505051518 | 23 | 190 | 11.3 | 20.9 | 0.00 | 0.00 | 0.00 | 17 | 1003.4 |
| 20260505041524 | 23 | 190 | 9.7 | 16.1 | 0.00 | 0.00 | 0.00 | 16 | 1003.2 |
| 20260505040014 | 24 | 190 | 9.7 | 16.1 | 0.00 | 0.00 | 0.00 | 15 | 1003.1 |
| 20260505034511 | 24 | 190 | 11.3 | 19.3 | 0.00 | 0.00 | 0.00 | 15 | 1003.1 |
| 20260505033013 | 25 | 190 | 9.7 | 16.1 | 0.00 | 0.00 | 0.00 | 15 | 1003.2 |
| 20260505031509 | 24 | 190 | 9.7 | 16.1 | 0.00 | 0.00 | 0.00 | 16 | 1002.9 |
| 20260505030009 | 25 | 190 | 4.8 | 16.1 | 0.00 | 0.00 | 0.00 | 15 | 1002.8 |
| 20260505024521 | 25 | 190 | 4.8 | 17.7 | 0.00 | 0.00 | 0.00 | 14 | 1002.7 |
| 20260505023006 | 26 | 190 | 6.4 | 11.3 | 0.00 | 0.00 | 0.00 | 14 | 1002.6 |
| 20260505021506 | 26 | 190 | 4.8 | 11.3 | 0.00 | 0.00 | 0.00 | 14 | 1002.4 |
| 20260505020004 | 26 | 190 | 4.8 | 9.7 | 0.00 | 0.00 | 0.00 | 16 | 1002.4 |
| 20260505014504 | 26 | 190 | 4.8 | 11.3 | 0.00 | 0.00 | 0.00 | 19 | 1002.4 |
| 20260505013011 | 26 | 190 | 4.8 | 9.7 | 0.00 | 0.00 | 0.00 | 18 | 1002.3 |
| 20260505011503 | 27 | 190 | 1.6 | 9.7 | 0.00 | 0.00 | 0.00 | 18 | 1002.2 |
| 20260505010001 | 27 | 190 | 4.8 | 14.5 | 0.00 | 0.00 | 0.00 | 15 | 1002.4 |
| 20260505004600 | 28 | 190 | 8.0 | 17.7 | 0.00 | 0.00 | 0.00 | 16 | 1002.4 |
| 20260505003058 | 28 | 190 | 9.7 | 17.7 | 0.00 | 0.00 | 0.00 | 16 | 1002.6 |
| 20260505001557 | 28 | 190 | 11.3 | 20.9 | 0.00 | 0.00 | 0.00 | 16 | 1002.5 |
| 20260505000106 | 28 | 190 | 11.3 | 22.5 | 0.00 | 0.00 | 0.00 | 16 | 1002.8 |
| 20260504234605 | 28 | 190 | 8.0 | 25.7 | 0.00 | 0.00 | 0.00 | 17 | 1003.3 |
| 20260504233051 | 28 | 190 | 12.9 | 20.9 | 0.00 | 0.00 | 0.00 | 19 | 1003.3 |
| 20260504231600 | 29 | 190 | 9.7 | 20.9 | 0.00 | 0.00 | 0.00 | 17 | 1003.3 |
| 20260504230050 | 29 | 190 | 9.7 | 17.7 | 0.00 | 0.00 | 0.00 | 19 | 1003.3 |
| 20260504224549 | 30 | 190 | 8.0 | 17.7 | 0.00 | 0.00 | 0.00 | 16 | 1003.2 |
| 20260504223048 | 30 | 190 | 9.7 | 16.1 | 0.00 | 0.00 | 0.00 | 17 | 1003.5 |
| 20260504221556 | 30 | 190 | 12.9 | 25.7 | 0.00 | 0.00 | 0.00 | 17 | 1003.6 |
| 20260504220044 | 30 | 190 | 8.0 | 17.7 | 0.00 | 0.00 | 0.00 | 18 | 1003.8 |
| 20260504214543 | 30 | 190 | 12.9 | 24.1 | 0.00 | 0.00 | 0.00 | 17 | 1004.0 |
| 20260504213040 | 30 | 190 | 14.5 | 29.0 | 0.00 | 0.00 | 0.00 | 15 | 1004.4 |
| 20260504211544 | 30 | 190 | 17.7 | 29.0 | 0.00 | 0.00 | 0.00 | 17 | 1004.7 |
| 20260504210051 | 29 | 190 | 19.3 | 30.6 | 0.00 | 0.00 | 0.00 | 17 | 1005.1 |
| 20260504204534 | 29 | 190 | 11.3 | 22.5 | 0.00 | 0.00 | 0.00 | 18 | 1005.1 |
| 20260504203034 | 29 | 190 | 12.9 | 30.6 | 0.00 | 0.00 | 0.00 | 17 | 1005.2 |
| 20260504201531 | 29 | 190 | 14.5 | 35.4 | 0.00 | 0.00 | 0.00 | 17 | 1005.6 |
| 20260504200029 | 30 | 190 | 12.9 | 30.6 | 0.00 | 0.00 | 0.00 | 18 | 1005.7 |
| 20260504194537 | 29 | 190 | 14.5 | 27.4 | 0.00 | 0.00 | 0.00 | 18 | 1005.9 |
| 20260504193023 | 29 | 190 | 12.9 | 25.7 | 0.00 | 0.00 | 0.00 | 19 | 1006.2 |
| 20260504191526 | 29 | 190 | 12.9 | 20.9 | 0.00 | 0.00 | 0.00 | 19 | 1006.4 |
| 20260504190021 | 28 | 190 | 17.7 | 30.6 | 0.00 | 0.00 | 0.00 | 19 | 1006.5 |
| 20260504184517 | 29 | 190 | 14.5 | 25.7 | 0.00 | 0.00 | 0.00 | 20 | 1006.8 |
| 20260504183015 | 29 | 190 | 17.7 | 29.0 | 0.00 | 0.00 | 0.00 | 19 | 1007.0 |
| 20260504181511 | 28 | 190 | 14.5 | 25.7 | 0.00 | 0.00 | 0.00 | 20 | 1007.3 |
| 20260504180013 | 28 | 190 | 11.3 | 22.5 | 0.00 | 0.00 | 0.00 | 21 | 1007.8 |
| 20260504174506 | 28 | 190 | 17.7 | 30.6 | 0.00 | 0.00 | 0.00 | 21 | 1007.9 |
| 20260504173012 | 28 | 190 | 11.3 | 24.1 | 0.00 | 0.00 | 0.00 | 23 | 1008.2 |
| 20260504171501 | 28 | 190 | 16.1 | 27.4 | 0.00 | 0.00 | 0.00 | 22 | 1008.5 |